| time (UTC) | temp F | wind direction | speed MPH | gust MPH | rain 1hr in | rain 24hr in | rain mn in | humidity % | barometer mb |
| 20260506013025 | 49 | 221 | 0.0 | 0.0 | 0.00 | 0.19 | 0.01 | 95 | 1005.3 |
| 20260506011514 | 50 | 221 | 0.0 | 0.0 | 0.00 | 0.19 | 0.01 | 95 | 1005.3 |
| 20260506010017 | 51 | 221 | 0.0 | 0.0 | 0.00 | 0.19 | 0.01 | 96 | 1005.3 |
| 20260506004518 | 51 | 184 | 0.0 | 0.0 | 0.00 | 0.19 | 0.01 | 96 | 1005.4 |
| 20260506003010 | 51 | 184 | 0.0 | 0.0 | 0.00 | 0.19 | 0.01 | 95 | 1005.6 |
| 20260506001508 | 51 | 184 | 0.0 | 0.0 | 0.00 | 0.19 | 0.01 | 95 | 1005.7 |
| 20260506000015 | 51 | 184 | 0.0 | 0.0 | 0.00 | 0.19 | 0.01 | 95 | 1005.9 |
| 20260505234513 | 52 | 184 | 0.0 | 0.0 | 0.01 | 0.19 | 0.01 | 96 | 1006.0 |
| 20260505233004 | 52 | 184 | 0.0 | 0.0 | 0.01 | 0.19 | 0.01 | 96 | 1006.0 |
| 20260505231502 | 52 | 184 | 0.0 | 0.0 | 0.01 | 0.19 | 0.01 | 95 | 1006.0 |
| 20260505230118 | 52 | 184 | 0.0 | 0.0 | 0.01 | 0.19 | 0.01 | 95 | 1006.0 |
| 20260505224551 | 52 | 184 | 0.0 | 0.0 | 0.00 | 0.18 | 0.00 | 95 | 1006.0 |
| 20260505223056 | 53 | 184 | 0.0 | 0.0 | 0.00 | 0.18 | 0.00 | 95 | 1005.9 |
| 20260505221551 | 53 | 184 | 0.0 | 0.0 | 0.00 | 0.18 | 0.00 | 95 | 1005.8 |
| 20260505220047 | 54 | 184 | 0.0 | 0.0 | 0.00 | 0.18 | 0.00 | 95 | 1005.9 |
| 20260505214558 | 54 | 184 | 0.0 | 0.0 | 0.00 | 0.18 | 0.18 | 95 | 1006.1 |
| 20260505213054 | 54 | 184 | 0.0 | 0.0 | 0.00 | 0.18 | 0.18 | 94 | 1006.2 |
| 20260505211543 | 54 | 184 | 0.0 | 0.0 | 0.00 | 0.18 | 0.18 | 95 | 1006.1 |
| 20260505210041 | 54 | 184 | 0.0 | 0.0 | 0.00 | 0.18 | 0.18 | 95 | 1006.0 |
| 20260505204540 | 54 | 178 | 0.0 | 0.0 | 0.00 | 0.18 | 0.18 | 95 | 1005.9 |
| 20260505203045 | 54 | 138 | 0.0 | 0.0 | 0.00 | 0.18 | 0.18 | 95 | 1005.8 |
| 20260505201549 | 55 | 138 | 0.0 | 0.0 | 0.00 | 0.18 | 0.18 | 95 | 1005.6 |
| 20260505200039 | 55 | 90 | 0.0 | 0.0 | 0.00 | 0.18 | 0.18 | 95 | 1005.5 |
| 20260505194540 | 56 | 90 | 0.0 | 0.0 | 0.00 | 0.18 | 0.18 | 94 | 1005.2 |
| 20260505193045 | 56 | 90 | 0.0 | 0.0 | 0.00 | 0.18 | 0.18 | 94 | 1005.2 |
| 20260505191548 | 56 | 90 | 0.0 | 0.0 | 0.01 | 0.18 | 0.18 | 94 | 1005.1 |
| 20260505190038 | 57 | 90 | 0.0 | 0.0 | 0.02 | 0.18 | 0.18 | 93 | 1005.0 |
| 20260505184535 | 57 | 90 | 0.0 | 0.0 | 0.03 | 0.18 | 0.18 | 93 | 1005.1 |
| 20260505183047 | 57 | 90 | 0.0 | 0.0 | 0.04 | 0.18 | 0.18 | 93 | 1005.0 |
| 20260505181533 | 57 | 90 | 0.0 | 0.0 | 0.03 | 0.17 | 0.17 | 92 | 1004.9 |
| 20260505180039 | 58 | 90 | 0.0 | 0.0 | 0.02 | 0.17 | 0.17 | 90 | 1004.8 |
| 20260505174538 | 58 | 216 | 0.0 | 0.0 | 0.01 | 0.15 | 0.15 | 88 | 1005.3 |
| 20260505173038 | 59 | 216 | 0.0 | 0.0 | 0.00 | 0.14 | 0.14 | 87 | 1005.1 |
| 20260505171539 | 59 | 172 | 0.0 | 0.0 | 0.00 | 0.14 | 0.14 | 85 | 1005.0 |
| 20260505170033 | 59 | 172 | 0.0 | 0.0 | 0.00 | 0.14 | 0.14 | 84 | 1004.9 |
| 20260505164536 | 59 | 174 | 0.0 | 0.0 | 0.00 | 0.14 | 0.14 | 84 | 1004.7 |
| 20260505163031 | 59 | 174 | 0.0 | 0.0 | 0.00 | 0.14 | 0.14 | 86 | 1004.8 |
| 20260505161529 | 58 | 157 | 0.0 | 1.0 | 0.00 | 0.14 | 0.14 | 87 | 1004.8 |
| 20260505153029 | 58 | 276 | 0.0 | 0.0 | 0.01 | 0.14 | 0.14 | 90 | 1005.4 |
| 20260505151524 | 57 | 276 | 0.0 | 0.0 | 0.02 | 0.14 | 0.14 | 89 | 1005.4 |
| 20260505124519 | 67 | 230 | 0.0 | 3.0 | 0.00 | 0.00 | 0.00 | 64 | 1004.8 |
| 20260505123020 | 67 | 253 | 2.0 | 9.0 | 0.00 | 0.00 | 0.00 | 62 | 1004.8 |
| 20260505121515 | 68 | 263 | 1.0 | 9.0 | 0.00 | 0.00 | 0.00 | 63 | 1004.8 |
| 20260505120013 | 68 | 286 | 0.0 | 7.0 | 0.00 | 0.00 | 0.00 | 63 | 1004.8 |
| 20260505114513 | 68 | 284 | 0.0 | 6.0 | 0.00 | 0.00 | 0.00 | 64 | 1004.8 |
| 20260505113111 | 68 | 308 | 2.0 | 13.0 | 0.00 | 0.00 | 0.00 | 63 | 1004.8 |
| 20260505111542 | 68 | 275 | 0.0 | 8.0 | 0.00 | 0.00 | 0.00 | 61 | 1004.8 |
| 20260505101543 | 68 | 302 | 2.0 | 17.0 | 0.00 | 0.00 | 0.00 | 66 | 1005.4 |
| 20260505100037 | 68 | 301 | 1.0 | 13.0 | 0.00 | 0.00 | 0.00 | 64 | 1005.5 |
| 20260505094532 | 68 | 326 | 0.0 | 8.0 | 0.00 | 0.00 | 0.00 | 62 | 1005.7 |
| 20260505093034 | 68 | 242 | 0.0 | 7.0 | 0.00 | 0.00 | 0.00 | 66 | 1005.9 |
| 20260505091538 | 67 | 273 | 1.0 | 11.0 | 0.00 | 0.00 | 0.00 | 66 | 1006.0 |
| 20260505090041 | 65 | 279 | 2.0 | 11.0 | 0.00 | 0.00 | 0.00 | 70 | 1006.2 |
| 20260505084525 | 65 | 294 | 0.0 | 6.0 | 0.00 | 0.00 | 0.00 | 70 | 1006.3 |
| 20260505083020 | 63 | 238 | 0.0 | 2.0 | 0.00 | 0.00 | 0.00 | 74 | 1006.4 |
| 20260505081524 | 62 | 236 | 1.0 | 6.0 | 0.00 | 0.00 | 0.00 | 74 | 1006.6 |
| 20260505080041 | 63 | 282 | 0.0 | 0.0 | 0.00 | 0.00 | 0.00 | 73 | 1006.6 |
| 20260505074512 | 61 | 283 | 0.0 | 0.0 | 0.00 | 0.00 | 0.00 | 76 | 1006.6 |
| 20260505073014 | 62 | 296 | 0.0 | 0.0 | 0.00 | 0.00 | 0.00 | 76 | 1006.7 |
| 20260505071508 | 60 | 331 | 0.0 | 2.0 | 0.00 | 0.00 | 0.00 | 79 | 1006.8 |
| 20260505070004 | 59 | 237 | 0.0 | 0.0 | 0.00 | 0.00 | 0.00 | 80 | 1007.0 |
| 20260505064501 | 59 | 169 | 0.0 | 0.0 | 0.00 | 0.00 | 0.00 | 81 | 1007.1 |
| 20260505063101 | 57 | 165 | 0.0 | 0.0 | 0.00 | 0.00 | 0.00 | 84 | 1007.0 |
| 20260505061600 | 56 | 165 | 0.0 | 0.0 | 0.00 | 0.00 | 0.00 | 86 | 1007.2 |
| 20260505060054 | 56 | 165 | 0.0 | 0.0 | 0.00 | 0.00 | 0.00 | 86 | 1007.3 |
| 20260505054556 | 56 | 165 | 0.0 | 0.0 | 0.00 | 0.00 | 0.00 | 87 | 1007.4 |
| 20260505053052 | 55 | 165 | 0.0 | 0.0 | 0.00 | 0.00 | 0.00 | 87 | 1007.5 |
| 20260505051551 | 55 | 165 | 0.0 | 0.0 | 0.00 | 0.00 | 0.00 | 87 | 1007.5 |
| 20260505050123 | 53 | 166 | 0.0 | 0.0 | 0.00 | 0.00 | 0.00 | 91 | 1007.5 |
| 20260505041551 | 51 | 165 | 0.0 | 0.0 | 0.00 | 0.00 | 0.00 | 91 | 1007.5 |
| 20260505040050 | 51 | 165 | 0.0 | 0.0 | 0.00 | 0.00 | 0.00 | 91 | 1007.4 |
| 20260505034537 | 52 | 165 | 0.0 | 0.0 | 0.00 | 0.00 | 0.00 | 91 | 1007.4 |
| 20260505033037 | 52 | 165 | 0.0 | 0.0 | 0.00 | 0.00 | 0.00 | 90 | 1007.6 |
| 20260505031540 | 53 | 165 | 0.0 | 0.0 | 0.00 | 0.00 | 0.00 | 89 | 1007.7 |
| 20260505030035 | 54 | 165 | 0.0 | 0.0 | 0.00 | 0.00 | 0.00 | 89 | 1007.9 |
| 20260505024528 | 54 | 165 | 0.0 | 0.0 | 0.00 | 0.00 | 0.00 | 89 | 1007.9 |
| 20260505023033 | 54 | 165 | 0.0 | 0.0 | 0.00 | 0.00 | 0.00 | 88 | 1008.2 |
| 20260505021525 | 55 | 165 | 0.0 | 0.0 | 0.00 | 0.00 | 0.00 | 88 | 1008.5 |
| 20260505020021 | 55 | 165 | 0.0 | 0.0 | 0.00 | 0.00 | 0.00 | 88 | 1008.6 |
| 20260505014518 | 55 | 165 | 0.0 | 0.0 | 0.00 | 0.00 | 0.00 | 87 | 1008.8 |